Regional Weather Roundup
Issued by NWS

Home | Current Version | Previous Version | Graphics & Text | Print | Product List | Glossary On
Versions: 1 2 3 4 5 6 7 8 9 10 11 12 13 14 15 16 17 18 19 20 21 22 23 24 25 26 27 28 29 30 31 32 33 34 35 36 37 38 39 40 41 42 43 44 45 46 47 48 49 50
000
ASUS43 KOAX 300410
RWRNE

WEATHER ROUNDUP FOR NEBRASKA
NATIONAL WEATHER SERVICE OMAHA NE
1100 PM CDT FRI AUG 29 2014

NOTES: SATELLITE DATA IS BEING USED TO AUGMENT CLOUD COVER ABOVE
       12000 FEET.
       "FAIR" INDICATES FEW OR NO CLOUDS BELOW 12,000 FEET WITH NO
       SIGNIFICANT WEATHER AND/OR OBSTRUCTIONS TO VISIBILITY.

  * THESE STATIONS DO NOT REPORT WEATHER SUCH AS RAIN...SNOW OR FOG.

NEZ001>004-019>022-054>056-300500-
NEBRASKA PANHANDLE

CITY           SKY/WX    TMP DP  RH WIND       PRES   REMARKS
SCOTTSBLUFF    PTCLDY    61  57  87 CALM      30.08R
ALLIANCE       CLEAR     58  53  84 SE5       30.07R
CHADRON        CLEAR     61  54  77 VRB3      30.03R
KIMBALL        CLOUDY    58  52  80 CALM      30.11S
SIDNEY         MOCLDY    62  54  74 SW7       30.11R
$$

NEZ057>060-069>072-079>082-300500-
SOUTHWEST NEBRASKA

CITY           SKY/WX    TMP DP  RH WIND       PRES   REMARKS
NORTH PLATTE   CLEAR     64  59  83 CALM      30.02R
IMPERIAL       PTCLDY    66  55  67 NE7       30.05R
LEXINGTON      PTCLDY    63  59  87 W8        29.98S
MCCOOK         PTCLDY    68  59  73 N8        30.00R
OGALLALA       PTCLDY    63  55  76 NE7       30.05R
$$

NEZ005>010-023>029-035>040-094-300500-
NORTH CENTRAL NEBRASKA

CITY           SKY/WX    TMP DP  RH WIND       PRES   REMARKS
VALENTINE      CLEAR     60  56  86 CALM      30.01R
AINSWORTH      PTCLDY    63  56  79 NW6       29.99S
BROKEN BOW     CLOUDY    63  59  87 NW5       29.98R
O`NEILL        CLOUDY    64  64  97 W3        29.93S
ORD            CLOUDY    65  61  87 N5        29.94R
THEDFORD       CLEAR     62  57  83 NW3       30.03S
$$

NEZ041-046>049-061>064-073>077-083>087-300500-
SOUTH CENTRAL NEBRASKA

CITY           SKY/WX    TMP DP  RH WIND       PRES   REMARKS
GRAND ISLAND   PTCLDY    68  64  87 NW7       29.91R
AURORA         CLEAR     64  64 100 NW3       29.90S
HASTINGS       PTCLDY    66  61  84 NW5       29.93R
HEBRON         CLEAR     68  63  83 CALM      29.89S
HOLDREGE       MOCLDY    66  60  82 CALM      29.96F
KEARNEY *      MOCLDY    66  59  77 N8        29.94F
YORK           CLEAR     63 N/A N/A NW6       29.90R
$$

NEZ011>018-030>034-042>045-300500-
NORTHEAST NEBRASKA

CITY           SKY/WX    TMP DP  RH WIND       PRES   REMARKS
NORFOLK        PTCLDY    65  61  87 SW3       29.85F
ALBION         PTCLDY    64  59  83 W5        29.89F
BLAIR          PTCLDY    68  66  91 W5        29.84S
FREMONT        PTCLDY    67  66  94 W5        29.85S
TEKAMAH        PTCLDY    67  66  97 SW3       29.82S
WAYNE          MOCLDY    64  63  96 CALM      29.85S
$$

NEZ050>053-065>068-078-088>093-300500-
SOUTHEAST NEBRASKA

CITY           SKY/WX    TMP DP  RH WIND       PRES   REMARKS
LINCOLN        PTCLDY    69  66  90 W5        29.87R
OMAHA EPPLEY   PTCLDY    69  65  86 W7        29.83R
BEATRICE       CLEAR     66  66  99 W3        29.88R
FALLS CITY     PTCLDY    71  69  93 NW5       29.83R
NEBRASKA CITY  PTCLDY    68  68 100 W7        29.84R
PLATTSMOUTH    PTCLDY    69  66  90 W7        29.84R
$$

NEZ044-045-051>053-067-300500-
OMAHA AREA

CITY           SKY/WX    TMP DP  RH WIND       PRES   REMARKS
OMAHA EPPLEY   PTCLDY    69  65  86 W7        29.83R
BLAIR          PTCLDY    68  66  91 W5        29.84S
FREMONT        PTCLDY    67  66  94 W5        29.85S
MILLARD        PTCLDY    70  67  89 W5        29.84R
OFFUTT AFB     CLEAR     67  67 100 NW5       29.83R
PLATTSMOUTH    PTCLDY    69  66  90 W7        29.84R
WAHOO          FAIR      69  65  89 W3        29.85S
$$


USA.gov is the U.S. government's official web portal to all federal, state and local government web resources and services.